Regional Weather Roundup
Issued by NWS

Home | Current Version | Previous Version | Text Only | Print | Product List | Glossary Off
Versions: 1 2 3 4 5 6 7 8 9 10 11 12 13 14 15 16 17 18 19 20 21 22 23 24 25 26 27 28 29 30 31 32 33 34 35 36 37 38 39 40 41 42 43 44 45 46 47 48 49 50

218
ASUS45 KCYS 231510
RWRWY

WYOMING REGIONAL WEATHER ROUNDUP
NATIONAL WEATHER SERVICE CHEYENNE WY
900 AM MDT TUE MAY 23 2017

NOTE:  "FAIR" INDICATES FEW OR NO CLOUDS BELOW 12,000 FEET
WITH NO SIGNIFICANT WEATHER AND/OR OBSTRUCTIONS TO VISIBILITY.

WYZ001-231600-
YELLOWSTONE NATIONAL PARK

CITY           SKY/WX    TMP DP  RH WIND       PRES   REMARKS
LK YELLOWSTONE   N/A     36  31  82 CALM      30.36S
W YELLOWSTONE  NOT AVBL

$$
WYZ002>013-054>058-071-098>099-231600-
NORTHERN WYOMING

CITY           SKY/WX    TMP DP  RH WIND       PRES   REMARKS
JACKSON        SUNNY     43  32  65 CALM      30.33S
CODY           FAIR      56  36  47 CALM      30.24S
GREYBULL       FAIR      50  40  68 CALM      30.23S
WORLAND        FAIR      51  41  68 CALM      30.22F
SHERIDAN       FAIR      58  39  49 N6        30.22S
BUFFALO        FAIR      55  33  43 N13       30.23F
GILLETTE       FAIR      53  39  59 N10       30.20F
HULETT         FAIR      50  37  62 CALM      30.21S
NEWCASTLE      FAIR      46  36  66 NW12      30.19F

$$
WYZ014>020-022>026-101>103-231600-
CENTRAL WYOMING

CITY           SKY/WX    TMP DP  RH WIND       PRES   REMARKS
BIG PINEY      FAIR      45  34  65 E5        30.34S
PINEDALE       FAIR      45  32  61 CALM      30.34F
DUBOIS         FAIR      46  30  53 CALM      30.28F
LANDER         FAIR      49  37  63 E5        30.25F
RIVERTON       FAIR      50  36  58 W5        30.26S
CASPER         PTSUNNY   47  39  74 W9        30.24F
DOUGLAS        PTSUNNY   47  38  71 W14       30.22F

$$
WYZ021-027>030-104>119-231600-
SOUTHERN WYOMING

CITY           SKY/WX    TMP DP  RH WIND       PRES   REMARKS
EVANSTON       FAIR      49  38  65 CALM      30.31F
KEMMERER         N/A     48  30  49 CALM      30.33F
FORT BRIDGER   FAIR      48  36  62 CALM      30.34F
ROCK SPRINGS   FAIR      44  36  73 CALM      30.33S
DIXON            N/A     38  35  89 CALM      30.38S
RAWLINS        FAIR      45  35  68 W15       30.30S
LARAMIE        FAIR      42  30  62 NW17G29   30.25S
CHEYENNE       CLOUDY    42  34  73 NW17G25   30.22F
TORRINGTON     CLOUDY    51  38  60 NW15      30.17S

$$




USA.gov is the U.S. government's official web portal to all federal, state and local government web resources and services.